Torna al catalogo

FENGYUN 1C DEB

AttivoSSO
NORAD 29836·DEBRIS·🇨🇳 China

Lanciato May 10, 1999 da Taiyuan Satellite Launch Center

Loading…

Prossimi Passaggi (prossime 24 ore)

TLE

AggiornatoSource: Space-Track

Epoca: Sep 14, 2026, 18:10 UTC

1 29836U 99025EE  26257.75749516  .00001082  00000-0  22383-3 0  9991
2 29836  98.1874 353.0404 0153317  68.8240  80.9317 14.55196615675687

Traccia FENGYUN 1C DEB in tempo reale con AllMySat

Download on the App Store